History for GLE, Texas on Wednesday, October 6, 2004

Jump to data by:

Latest visited Airport Codes: GLE

Data type:
 

« Previous Day | Next Day »

 
Daily Summary
Actual Average (KDFW) Record (KDFW)
Temperature
Mean Temperature 69 °F 71 °F  
Max Temperature 78 °F 81 °F 96 °F (1956)
Min Temperature 60 °F 60 °F 43 °F (1915)
Degree Days
Heating Degree Days 0 1  
Month to date heating degree days 6  
Since 1 July heating degree days 12  
Cooling Degree Days 4 7  
Month to date cooling degree days 44  
Year to date cooling degree days 2621  
Growing Degree Days 19 (Base 50)    
Moisture
Dew Point 59 °F    
Average Humidity 68    
Maximum Humidity 88    
Minimum Humidity 57    
Precipitation
Precipitation 0.03 in 0.11 in 3.44 in (1930)
Month to date precipitation 0.60  
Year to date precipitation 27.26  
Snow
Snow 0.00 in 0.00 in 0.00 in ()
Month to date snowfall 0.0  
Since 1 July snowfall 0.0  
Since 1 September snowfall 0.0  
Snow Depth -    
Sea Level Pressure
Sea Level Pressure 30.15 in    
Wind
Wind Speed 7 mph (SE)    
Max Wind Speed 15 mph    
Max Gust Speed 20 mph    
Visibility 10 miles    
Events Rain   

Click here for data from the nearest station with official NWS data (KDFW).
Key: T is trace of precipitation, MM is missing value
Source: NWS Daily Summary
Time (CDT) Temp. Dew Point Humidity Sea Level Pressure Visibility Wind Direction Wind Speed Gust Speed Precip. Events Conditions
12:07 AM 68.0 °F 57.2 °F 68% 30.17 in 10.0 miles ESE 8.1 mph - N/A   Clear
12:48 AM 68.0 °F 59.0 °F 73% 30.16 in 10.0 miles SE 8.1 mph - N/A   Clear
1:08 AM 64.4 °F 57.2 °F 77% 30.17 in 10.0 miles SE 6.9 mph - N/A   Clear
1:27 AM 64.4 °F 57.2 °F 77% 30.16 in 10.0 miles SE 5.8 mph - N/A   Clear
1:48 AM 62.6 °F 57.2 °F 82% 30.17 in 10.0 miles SE 4.6 mph - N/A   Clear
2:27 AM 62.6 °F 57.2 °F 82% 30.17 in 10.0 miles ESE 3.5 mph - N/A   Scattered Clouds
2:49 AM 62.6 °F 57.2 °F 82% 30.17 in 10.0 miles Calm Calm - N/A   Clear
3:08 AM 62.6 °F 57.2 °F 82% 30.17 in 10.0 miles East 4.6 mph - N/A   Clear
3:29 AM 62.6 °F 57.2 °F 82% 30.16 in 10.0 miles East 5.8 mph - N/A   Scattered Clouds
3:48 AM 64.4 °F 60.8 °F 88% 30.16 in 10.0 miles East 4.6 mph - N/A   Mostly Cloudy
4:07 AM 64.4 °F 57.2 °F 77% 30.15 in 10.0 miles ESE 10.4 mph - N/A Rain Light Rain
4:27 AM 64.4 °F 59.0 °F 83% 30.14 in 10.0 miles ESE 8.1 mph - N/A Rain Light Rain
4:49 AM 64.4 °F 57.2 °F 77% 30.14 in 10.0 miles ESE 9.2 mph - N/A   Overcast
5:10 AM 64.4 °F 55.4 °F 73% 30.14 in 10.0 miles ESE 6.9 mph - N/A   Mostly Cloudy
5:27 AM 64.4 °F 55.4 °F 73% 30.14 in 10.0 miles ESE 6.9 mph - N/A   Scattered Clouds
5:48 AM 64.4 °F 53.6 °F 68% 30.15 in 10.0 miles SE 5.8 mph - N/A   Mostly Cloudy
6:07 AM 62.6 °F 53.6 °F 72% 30.16 in 10.0 miles SE 6.9 mph - N/A   Mostly Cloudy
6:27 AM 62.6 °F 51.8 °F 68% 30.16 in 10.0 miles ESE 5.8 mph - N/A   Overcast
6:47 AM 62.6 °F 50.0 °F 63% 30.16 in 10.0 miles ESE 6.9 mph - N/A   Overcast
7:07 AM 62.6 °F 50.0 °F 63% 30.17 in 10.0 miles ESE 5.8 mph - N/A Rain Rain
7:47 AM 60.8 °F 51.8 °F 72% 30.17 in 10.0 miles ESE 8.1 mph - N/A   Overcast
8:07 AM 60.8 °F 51.8 °F 72% 30.17 in 10.0 miles ESE 6.9 mph - N/A   Mostly Cloudy
8:27 AM 60.8 °F 51.8 °F 72% 30.17 in 10.0 miles ESE 8.1 mph - N/A   Mostly Cloudy
9:09 AM 60.8 °F 50.0 °F 68% 30.19 in 10.0 miles ESE 5.8 mph - N/A   Mostly Cloudy
9:28 AM 62.6 °F 50.0 °F 63% 30.18 in 10.0 miles ESE 9.2 mph - N/A   Scattered Clouds
9:47 AM 64.4 °F 51.8 °F 64% 30.18 in 10.0 miles ESE 10.4 mph - N/A   Clear
10:08 AM 68.0 °F 53.6 °F 60% 30.19 in 10.0 miles SE 10.4 mph - N/A   Clear
10:27 AM 68.0 °F 53.6 °F 60% 30.19 in 10.0 miles SE 8.1 mph - N/A   Clear
10:47 AM 68.0 °F 53.6 °F 60% 30.19 in 10.0 miles SSE 6.9 mph - N/A   Scattered Clouds
11:09 AM 68.0 °F 53.6 °F 60% 30.19 in 10.0 miles SE 9.2 mph - N/A   Scattered Clouds
11:28 AM 69.8 °F 55.4 °F 60% 30.18 in 10.0 miles SE 8.1 mph - N/A   Clear
11:47 AM 73.4 °F 59.0 °F 61% 30.18 in 10.0 miles SSE 9.2 mph - N/A   Clear
12:07 PM 73.4 °F 59.0 °F 61% 30.18 in 10.0 miles SE 11.5 mph 16.1 mph N/A   Clear
12:28 PM 73.4 °F 59.0 °F 61% 30.18 in 10.0 miles SE 9.2 mph - N/A   Clear
12:53 PM 73.4 °F 59.0 °F 61% 30.17 in 10.0 miles SE 10.4 mph - N/A   Clear
1:07 PM 75.2 °F 60.8 °F 61% 30.17 in 10.0 miles SE 6.9 mph - N/A   Clear
1:28 PM 75.2 °F 60.8 °F 61% 30.16 in 10.0 miles SE 10.4 mph 16.1 mph N/A   Clear
1:47 PM 78.8 °F 62.6 °F 57% 30.15 in 10.0 miles SE 11.5 mph - N/A   Scattered Clouds
2:09 PM 78.8 °F 62.6 °F 57% 30.14 in - SE 12.7 mph 16.1 mph 0.03 in   Scattered Clouds
2:27 PM 78.8 °F 62.6 °F 57% 30.14 in 10.0 miles SSE 10.4 mph - 0.03 in   Mostly Cloudy
2:47 PM 78.8 °F 62.6 °F 57% 30.13 in 10.0 miles SE 13.8 mph - 0.03 in   Scattered Clouds
3:07 PM 78.8 °F 62.6 °F 57% 30.13 in 10.0 miles SSE 10.4 mph - N/A   Clear
3:27 PM 78.8 °F 62.6 °F 57% 30.13 in 10.0 miles SE 15.0 mph - N/A   Clear
3:53 PM 78.8 °F 62.6 °F 57% 30.12 in 10.0 miles SSE 12.7 mph 19.6 mph N/A   Scattered Clouds
4:29 PM 78.8 °F 62.6 °F 57% 30.11 in 10.0 miles SE 11.5 mph - N/A   Scattered Clouds
4:47 PM 78.8 °F 62.6 °F 57% 30.10 in 10.0 miles SSE 12.7 mph - N/A   Clear
5:07 PM 78.8 °F 62.6 °F 57% 30.11 in 10.0 miles SE 11.5 mph - N/A   Clear
5:27 PM 78.8 °F 62.6 °F 57% 30.11 in 10.0 miles SE 8.1 mph - N/A   Clear
5:47 PM 78.8 °F 64.4 °F 61% 30.11 in 10.0 miles SE 8.1 mph - N/A   Clear
6:14 PM 78.8 °F 64.4 °F 61% 30.11 in 10.0 miles SE 5.8 mph - N/A   Clear
6:33 PM 75.2 °F 64.4 °F 69% 30.11 in 10.0 miles ESE 5.8 mph - N/A   Clear
6:49 PM 75.2 °F 64.4 °F 69% 30.11 in 10.0 miles ESE 4.6 mph - N/A   Clear
7:33 PM 73.4 °F 64.4 °F 73% 30.12 in 10.0 miles ESE 4.6 mph - N/A   Scattered Clouds
7:54 PM 73.4 °F 64.4 °F 73% 30.12 in 10.0 miles ESE 4.6 mph - N/A   Scattered Clouds
8:27 PM 73.4 °F 66.2 °F 78% 30.13 in 10.0 miles Calm Calm - N/A   Scattered Clouds
8:47 PM 73.4 °F 66.2 °F 78% 30.13 in 10.0 miles ESE 3.5 mph - N/A   Scattered Clouds
9:07 PM 73.4 °F 66.2 °F 78% 30.14 in 7.0 miles Calm Calm - N/A   Scattered Clouds
9:27 PM 73.4 °F 66.2 °F 78% 30.14 in 10.0 miles Calm Calm - N/A   Scattered Clouds
9:47 PM 73.4 °F 66.2 °F 78% 30.15 in 10.0 miles Calm Calm - N/A   Scattered Clouds
10:08 PM 73.4 °F 66.2 °F 78% 30.15 in 10.0 miles ESE 3.5 mph - N/A   Overcast
10:29 PM 73.4 °F 66.2 °F 78% 30.15 in 7.0 miles ESE 3.5 mph - N/A   Mostly Cloudy
10:49 PM 73.4 °F 66.2 °F 78% 30.15 in 7.0 miles ESE 4.6 mph - N/A   Mostly Cloudy
11:07 PM 73.4 °F 66.2 °F 78% 30.15 in 7.0 miles SE 16.1 mph 26.5 mph N/A   Overcast
11:28 PM 73.4 °F 66.2 °F 78% 30.17 in 10.0 miles South 17.3 mph 31.1 mph N/A Rain Light Rain
11:47 PM 68.0 °F 62.6 °F 83% 30.17 in 4.0 miles South 13.8 mph 24.2 mph 0.05 in Rain Heavy Rain

Powered by the Weather Underground, Inc.